Location: Bramevaque
(42.9773°N, 0.5757°E)
Time: 11:17:46
(UTC+00:00)

Meteor 1-31 Rocket - Pass Details

Date: 15 May 2026
Orbit: 453 x 471 km, 97.6° (Epoch: 5 June)

Event Time Altitude Azimuth Distance (km) Brightness Sun altitude
Exits shadow 20:29:02 - 192° (SSW) 2,342 5.7 -12.2°
Reaches altitude 10° 20:30:56 10° 203° (SSW) 1,613 5.0 -12.4°
Maximum altitude 20:33:55 27° 263° (W) 921 4.4 -12.8°
Drops below altitude 10° 20:36:56 10° 323° (NW) 1,616 6.6 -13.2°
Sets 20:39:11 0° 336° (NNW) 2,493 7.5 -13.5°
